This is the latest recevied weather packets stored in our database for station/object DB5ZQ. If no packets are shown the sender has not sent any weather packets the latest 10 day(s).
| Time | Temp. | Humidity | Pressure | Rain* | Wind** | Luminosity | Snow |
|---|---|---|---|---|---|---|---|
| 1787927284 | 27.78° C | 52% | 1006.1 hPa | 0 mm | - | - | - |
| 1787926984 | 28.33° C | 51% | 1006.1 hPa | 0 mm | - | - | - |
| 1787926684 | 28.89° C | 50% | 1006 hPa | 0 mm | - | - | - |
| 1787926383 | 28.33° C | 51% | 1006.1 hPa | 0 mm | - | - | - |
| 1787926083 | 28.33° C | 52% | 1006.1 hPa | 0 mm | - | - | - |
| 1787925783 | 28.33° C | 52% | 1006.2 hPa | 0 mm | - | - | - |
| 1787925482 | 28.33° C | 52% | 1006.1 hPa | 0 mm | - | - | - |
| 1787925182 | 27.78° C | 53% | 1006.2 hPa | 0 mm | - | - | - |
| 1787924882 | 27.22° C | 55% | 1006.3 hPa | 0 mm | - | - | - |
| 1787924582 | 27.22° C | 56% | 1006.2 hPa | 0 mm | - | - | - |
| 1787924281 | 26.67° C | 56% | 1006.3 hPa | 0 mm | - | - | - |
| 1787923981 | 26.67° C | 57% | 1006.4 hPa | 0 mm | - | - | - |
| 1787923681 | 26.67° C | 57% | 1006.3 hPa | 0 mm | - | - | - |
| 1787923381 | 26.67° C | 59% | 1006.4 hPa | 0 mm | - | - | - |
| 1787923080 | 26.11° C | 58% | 1006.4 hPa | 0 mm | - | - | - |
| 1787922780 | 26.67° C | 58% | 1006.5 hPa | 0 mm | - | - | - |
| 1787922480 | 26.67° C | 58% | 1006.5 hPa | 0 mm | - | - | - |
| 1787922179 | 26.67° C | 58% | 1006.5 hPa | 0 mm | - | - | - |
| 1787921879 | 26.11° C | 60% | 1006.5 hPa | 0 mm | - | - | - |
| 1787921579 | 26.11° C | 60% | 1006.6 hPa | 0 mm | - | - | - |
| 1787921279 | 26.11° C | 60% | 1006.7 hPa | 0 mm | - | - | - |
| 1787920978 | 26.11° C | 59% | 1006.5 hPa | 0 mm | - | - | - |
| 1787920678 | 25.56° C | 62% | 1006.5 hPa | 0 mm | - | - | - |
| 1787920378 | 25.56° C | 62% | 1006.7 hPa | 0 mm | - | - | - |
| 1787920077 | 25.56° C | 62% | 1006.8 hPa | 0 mm | - | - | - |
* Rain latest hour (hover to see other rain measurements)
** Current wind speed in m/s (hover to see current wind gust speed)